[[{"header":{"parameterUnit":"m.s-1","parameterCategory":1,"la1":30.2991,"la2":30.254,"lo1":-89.0895,"lo2":-89.0444,"dy":0.0017,"dx":0.0017,"nx":28,"ny":28,"refTime":"2024-08-30T09:00:00:Z","depth":0,"parameterNumber":2,"parameterNumberName":"U-component_of_WINDS"},"data":[0,0,0,0,0,0,0,0,0,0,0,0,0,0,0,0,0,0,0,0,0,0,0,0,0,0,0,0,0,0,0,0,0,0,0,0,0,0,0,0,0,0,0,0,0,0,0,0,0,0,0,0,0,0,0,0,0,0,-4.0773,-4.0772,0,-4.0691,-4.069,-4.0689,-4.0594,-4.0592,-4.0591,-4.0589,-4.0506,-4.0505,-4.0504,0,0,0,0,0,0,0,0,0,0,0,0,0,-4.0852,-4.0851,-4.0773,-4.0772,-4.0771,-4.0691,-4.069,-4.0688,-4.0594,-4.0592,-4.059,-4.0589,-4.0506,-4.0505,-4.0504,0,0,0,0,0,0,0,0,0,0,0,0,0,-4.0799,-4.0851,-4.0773,-4.0714,-4.0708,-4.0691,-4.069,-4.0688,-4.0594,-4.0592,-4.059,-4.0588,-4.0507,-4.0505,-4.0504,-4.0539,0,0,-4.05,-4.0499,0,0,0,0,0,0,0,0,-4.0802,-4.0796,-4.0724,-4.0718,-4.0711,-4.065,-4.0687,-4.0638,-4.0595,-4.0638,-4.0589,-4.0587,-4.0556,-4.055,-4.0539,-4.0535,-4.0531,-4.05,-4.0499,-4.0498,-4.0498,0,0,0,0,0,0,0,-4.0806,-4.0799,-4.0741,-4.0723,-4.0715,-4.0693,-4.0683,-4.0677,-4.061,-4.0634,-4.0627,-4.0618,-4.0552,-4.0541,-4.0537,-4.053,-4.05,-4.0499,-4.0498,-4.0497,-4.0551,-4.0553,0,0,0,0,0,0,-4.0818,-4.0803,-4.0743,-4.0738,-4.0752,-4.0693,-4.0682,-4.0672,-4.061,-4.0598,-4.062,-4.0614,-4.0544,-4.0539,-4.0534,-4.057,-4.0498,-4.0497,-4.0496,-4.0549,-4.0552,-4.0554,0,0,0,0,0,0,-4.082,-4.0814,-4.0746,-4.0768,-4.0758,-4.0694,-4.0684,-4.0672,-4.066,-4.0599,-4.0587,-4.0621,-4.0542,-4.0535,-4.0538,-4.0565,-4.0497,-4.0495,-4.0546,-4.055,-4.0553,-4.0643,0,0,0,0,0,0,-4.0823,-4.0815,-4.0826,-4.0769,-4.0757,-4.0752,-4.0685,-4.0671,-4.0658,-4.0649,-4.0597,-4.0586,-4.054,-4.0541,-4.0537,-4.0562,-4.0494,-4.0544,-4.0548,-4.0552,-4.0637,-4.0649,-4.0659,0,0,0,0,0,-4.0826,-4.0855,-4.0827,-4.0821,-4.077,-4.0753,-4.0747,-4.0693,-4.0661,-4.0672,-4.0634,-4.0588,-4.0564,-4.0542,-4.0537,-4.0562,-4.0541,-4.0547,-4.0552,-4.0632,-4.0646,-4.0659,0,0,0,0,0,0,-4.0916,-4.0846,-4.0815,-4.0826,-4.0797,-4.0737,-4.075,-4.071,-4.0689,-4.0681,-4.0617,-4.0606,-4.0616,-4.059,-4.0567,-4.0594,-4.0546,-4.0551,-4.0609,-4.0622,-4.0633,-4.0638,-4.0493,0,0,0,0,0,-4.0938,-4.0929,-4.0869,-4.0885,-4.0872,-4.0814,-4.0805,-4.0766,-4.0733,-4.072,-4.0681,-4.0651,-4.0637,-4.0629,-4.0612,-4.0634,-4.0622,-4.065,-4.0661,-4.067,-4.0673,-4.0684,-4.0695,-4.0571,-4.0571,-4.057,0,0,-4.0981,-4.0942,-4.094,-4.0902,-4.0874,-4.0868,-4.0804,-4.0799,-4.0794,-4.0719,-4.0719,-4.0691,-4.0653,-4.0666,-4.0669,-4.0644,-4.0706,-4.0676,-4.0684,-4.0682,-4.069,-4.0702,-4.0712,-4.0574,-4.0573,-4.0573,0,0,-4.1056,-4.1027,-4.1036,-4.1011,-4.097,-4.0932,-4.0935,-4.0883,-4.0861,-4.086,-4.0804,-4.0799,-4.0775,-4.0751,-4.0736,-4.0807,-4.0764,-4.0804,-4.0859,-4.087,-4.088,-4.0888,-4.0913,-4.0922,-4.0808,-4.0808,-4.0809,0,-4.1115,-4.1102,-4.1047,-4.1046,-4.1031,-4.0965,-4.0975,-4.0953,-4.091,-4.0901,-4.0874,-4.0845,-4.0815,-4.0822,-4.0839,-4.083,-4.0831,-4.0807,-4.0883,-4.0891,-4.0898,-4.092,-4.093,-4.0813,-4.0813,-4.0812,-4.0812,0,-4.1177,-4.1169,-4.1182,-4.1142,-4.1129,-4.1134,-4.108,-4.1074,-4.1039,-4.1005,-4.1006,-4.0969,-4.0944,-4.0943,-4.0908,-4.0945,-4.0931,-4.0895,-4.0845,-4.0915,-4.0935,-4.0944,-4.082,-4.0819,-4.0817,-4.0816,0,0,-4.1302,-4.1234,-4.1239,-4.122,-4.1173,-4.1166,-4.117,-4.1146,-4.1142,-4.1116,-4.1117,-4.1101,-4.1068,-4.1051,-4.1013,-4.1023,-4.1081,-4.0985,-4.0984,-4.1003,-4.112,-4.1145,-4.1156,-4.1055,-4.1056,-4.1057,-4.1122,0,-4.1367,-4.1366,-4.1318,-4.1332,-4.1325,-4.1264,-4.1267,-4.1239,-4.1208,-4.1199,-4.1165,-4.1154,-4.1112,-4.1101,-4.1109,-4.1073,-4.1103,-4.1068,-4.1054,-4.1054,-4.1062,-4.1167,-4.1193,-4.1256,-4.113,-4.1131,-4.1132,0,-4.1441,-4.142,-4.1433,-4.1386,-4.1381,-4.1385,-4.136,-4.1351,-4.132,-4.1297,-4.128,-4.1238,-4.1239,-4.1196,-4.1197,-4.1174,-4.1166,-4.1149,-4.115,-4.1144,-4.1095,-4.1162,-4.1275,-4.1284,-4.1144,-4.1143,-4.1143,0,-4.153,-4.1504,-4.1508,-4.1495,-4.1442,-4.1445,-4.1424,-4.139,-4.1379,-4.1359,-4.1351,-4.1332,-4.132,-4.1307,-4.1261,-4.1234,-4.1268,-4.122,-4.1249,-4.125,-4.1255,-4.1255,-4.1367,-4.1256,-4.1256,-4.1255,-4.1255,0,-4.1605,-4.1615,-4.1547,-4.155,-4.156,-4.1507,-4.1518,-4.1491,-4.1462,-4.1459,-4.1407,-4.1406,-4.1347,-4.134,-4.1305,-4.1311,-4.1307,-4.1289,-4.1279,-4.1291,-4.1294,-4.1283,-4.1277,-4.1258,-4.1257,-4.1257,-4.1256,0,-4.1703,-4.1659,-4.1659,-4.161,-4.1598,-4.1607,-4.1565,-4.1566,-4.1534,-4.1531,-4.1528,-4.1477,-4.1466,-4.142,-4.1398,-4.1375,-4.1393,-4.1375,-4.1403,-4.1396,-4.1426,-4.1423,-4.1533,-4.1544,-4.1428,-4.143,-4.1431,0,-4.1753,-4.1759,-4.1711,-4.1705,-4.1686,-4.1677,-4.1666,-4.1616,-4.1607,-4.1573,-4.1578,-4.1563,-4.1548,-4.1534,-4.1495,-4.1479,-4.1459,-4.1499,-4.1456,-4.1469,-4.1457,-4.1456,-4.1457,-4.1507,-4.1508,-4.151,-4.1511,0,-4.1846,-4.1824,-4.181,-4.1789,-4.1778,-4.1759,-4.1738,-4.1737,-4.168,-4.1673,-4.1661,-4.165,-4.1628,-4.1614,-4.1592,-4.1571,-4.1532,-4.1526,-4.1531,-4.1542,-4.1557,-4.1548,-4.1425,-4.1522,-4.1521,-4.152,-4.1519,-4.1519,-4.1919,-4.1922,-4.1889,-4.1876,-4.1855,-4.1837,-4.1835,-4.1804,-4.1793,-4.177,-4.1743,-4.1734,-4.1705,-4.1671,-4.1654,-4.1648,-4.1626,-4.1634,-4.1635,-4.1637,-4.1643,-4.1562,-4.1644,-4.1643,-4.1643,-4.1643,-4.1642,0,-4.2007,-4.1984,-4.1973,-4.1944,-4.1935,-4.1901,-4.1876,-4.187,-4.1863,-4.184,-4.1826,-4.1814,-4.1801,-4.1763,-4.1747,-4.1749,-4.1731,-4.1746,-4.1744,-4.174,-4.1665,-4.1661,-4.1761,-4.1761,-4.1761,-4.1761,-4.1761,-4.1761,-4.2052,-4.2055,-4.203,-4.2024,-4.2,-4.1991,-4.198,-4.1964,-4.1944,-4.1932,-4.1921,-4.1897,-4.1868,-4.185,-4.1837,-4.1827,-4.1822,-4.1843,-4.1827,-4.1756,-4.1745,-4.1734,-4.173,-4.1843,-4.1843,-4.1902,-4.1902,-4.1903]},{"header":{"parameterUnit":"m.s-1","parameterCategory":1,"la1":30.2991,"la2":30.254,"lo1":-89.0895,"lo2":-89.0444,"dy":0.0017,"dx":0.0017,"nx":28,"ny":28,"refTime":"2024-08-30T09:00:00:Z","depth":0,"parameterNumber":3,"parameterNumberName":"V-component_of_WINDS"},"data":[0,0,0,0,0,0,0,0,0,0,0,0,0,0,0,0,0,0,0,0,0,0,0,0,0,0,0,0,0,0,0,0,0,0,0,0,0,0,0,0,0,0,0,0,0,0,0,0,0,0,0,0,0,0,0,0,0,0,3.4469,3.447,0,3.4574,3.4575,3.4576,3.4644,3.4644,3.4645,3.4645,3.4748,3.475,3.4753,0,0,0,0,0,0,0,0,0,0,0,0,0,3.4324,3.4326,3.4469,3.447,3.4471,3.4573,3.4575,3.4576,3.4644,3.4644,3.4645,3.4645,3.4747,3.475,3.4753,0,0,0,0,0,0,0,0,0,0,0,0,0,3.4403,3.4327,3.4469,3.4517,3.4523,3.4573,3.4575,3.4577,3.4643,3.4644,3.4645,3.4645,3.4746,3.475,3.4753,3.4762,0,0,3.4764,3.4765,0,0,0,0,0,0,0,0,3.4399,3.4408,3.4509,3.4514,3.452,3.4596,3.4562,3.4639,3.4643,3.4598,3.4645,3.4646,3.4697,3.4704,3.4722,3.4767,3.4771,3.4764,3.4766,3.4768,3.4769,0,0,0,0,0,0,0,3.4393,3.4404,3.451,3.451,3.4517,3.4533,3.4545,3.4576,3.4642,3.4602,3.4607,3.4618,3.47,3.4719,3.4725,3.4773,3.4764,3.4767,3.4769,3.4771,3.483,3.483,0,0,0,0,0,0,3.438,3.4399,3.4507,3.4513,3.446,3.4535,3.4549,3.4571,3.4642,3.4653,3.4618,3.4621,3.4713,3.4721,3.4729,3.4745,3.4768,3.4771,3.4773,3.4831,3.483,3.4829,0,0,0,0,0,0,3.4377,3.4389,3.4503,3.4458,3.4473,3.4537,3.4562,3.4573,3.4592,3.4654,3.4666,3.4625,3.4713,3.4724,3.4754,3.4749,3.4773,3.4776,3.4831,3.483,3.483,3.4775,0,0,0,0,0,0,3.4372,3.4388,3.4392,3.4457,3.4476,3.4526,3.4562,3.4574,3.4598,3.4604,3.4664,3.4675,3.4715,3.4748,3.4757,3.4755,3.4779,3.4832,3.4831,3.483,3.4778,3.4773,3.4768,0,0,0,0,0,3.4367,3.4372,3.4392,3.4405,3.4483,3.4526,3.4536,3.4583,3.4598,3.4603,3.4643,3.4673,3.4748,3.4751,3.4761,3.476,3.4832,3.4831,3.483,3.478,3.4774,3.4769,0,0,0,0,0,0,3.4303,3.4381,3.4405,3.4431,3.4471,3.4537,3.4545,3.4575,3.4611,3.4614,3.467,3.4683,3.4706,3.4736,3.4737,3.4772,3.4794,3.4795,3.4752,3.4747,3.4742,3.4735,3.4782,0,0,0,0,0,3.4292,3.4321,3.4388,3.4404,3.4424,3.4481,3.4501,3.4534,3.4577,3.4594,3.4637,3.4676,3.4709,3.473,3.4763,3.4782,3.4796,3.4786,3.4782,3.4778,3.4778,3.479,3.4787,3.4825,3.4825,3.4825,0,0,3.4269,3.4316,3.4331,3.4393,3.4428,3.4456,3.4494,3.4523,3.4544,3.4598,3.4629,3.4661,3.471,3.4734,3.4747,3.476,3.477,3.4776,3.4772,3.4775,3.4789,3.4785,3.4782,3.4825,3.4825,3.4825,0,0,3.4243,3.4281,3.43,3.4335,3.4388,3.4426,3.443,3.4492,3.4516,3.4548,3.459,3.4615,3.467,3.4703,3.4727,3.4714,3.4743,3.4723,3.4699,3.471,3.4707,3.4705,3.4701,3.4698,3.4723,3.4723,3.4723,0,3.4208,3.4254,3.4305,3.4331,3.4357,3.4409,3.4428,3.4459,3.452,3.4536,3.4549,3.462,3.4656,3.469,3.4687,3.4704,3.471,3.4716,3.4704,3.4702,3.4701,3.4697,3.4695,3.472,3.472,3.4721,3.4721,0,3.4208,3.4239,3.4247,3.4307,3.4333,3.4355,3.4409,3.443,3.446,3.4497,3.4529,3.4574,3.4618,3.4628,3.4657,3.4666,3.4672,3.4694,3.4717,3.4693,3.4691,3.469,3.4716,3.4717,3.4718,3.4719,0,0,3.4144,3.4232,3.4234,3.4262,3.4325,3.435,3.4374,3.4418,3.4435,3.4475,3.4497,3.4543,3.4564,3.4591,3.4624,3.4635,3.4622,3.4656,3.4658,3.4648,3.4634,3.4617,3.4615,3.4642,3.4642,3.4642,3.463,0,3.4127,3.4175,3.4222,3.4253,3.4282,3.4332,3.4353,3.4394,3.4428,3.4457,3.4494,3.4526,3.4552,3.4568,3.4581,3.4621,3.462,3.4622,3.4662,3.4662,3.4648,3.4614,3.4596,3.4583,3.4629,3.4629,3.4629,0,3.4114,3.4154,3.4188,3.4249,3.4263,3.4281,3.4326,3.4353,3.44,3.4424,3.4455,3.4491,3.4518,3.4538,3.4576,3.4576,3.4595,3.4617,3.4618,3.4623,3.4644,3.4618,3.458,3.4578,3.4628,3.4628,3.4628,0,3.4064,3.4126,3.4155,3.4177,3.4249,3.4261,3.4291,3.4338,3.4362,3.4401,3.4417,3.4457,3.448,3.451,3.4555,3.4565,3.4589,3.4612,3.4609,3.4608,3.4612,3.4611,3.4576,3.4623,3.4623,3.4623,3.4623,0,3.4041,3.406,3.4134,3.4151,3.4174,3.4228,3.4248,3.4282,3.4324,3.4349,3.4394,3.4415,3.4474,3.4502,3.4538,3.4564,3.4574,3.4594,3.4603,3.459,3.4587,3.4603,3.4605,3.4623,3.4623,3.4623,3.4623,0,3.399,3.404,3.4075,3.414,3.4157,3.4171,3.4226,3.4245,3.4282,3.4312,3.4323,3.438,3.4416,3.4465,3.4515,3.4539,3.4561,3.4575,3.4546,3.4551,3.4546,3.4546,3.452,3.452,3.4566,3.4565,3.4565,0,3.3972,3.3988,3.4056,3.4076,3.4105,3.4137,3.4162,3.4215,3.4239,3.4294,3.4306,3.4345,3.438,3.4435,3.4481,3.452,3.4536,3.4524,3.4542,3.4528,3.4536,3.4535,3.4537,3.4519,3.4519,3.4518,3.4518,0,3.3935,3.3959,3.3995,3.4038,3.4068,3.4104,3.4143,3.4157,3.4218,3.4242,3.428,3.4307,3.436,3.4398,3.4444,3.4474,3.4505,3.4512,3.4513,3.45,3.4483,3.4493,3.4534,3.4512,3.4513,3.4513,3.4513,3.4513,3.39,3.3917,3.3968,3.4006,3.4041,3.4076,3.4097,3.4137,3.417,3.4218,3.4247,3.4284,3.433,3.4394,3.4423,3.4452,3.4464,3.4466,3.4467,3.4467,3.4463,3.4478,3.446,3.446,3.4461,3.4461,3.4461,0,3.3866,3.3902,3.3936,3.3989,3.4019,3.4048,3.4092,3.4115,3.4147,3.4188,3.4222,3.4266,3.4303,3.4353,3.4394,3.4407,3.4423,3.4416,3.4416,3.4423,3.4449,3.4444,3.4403,3.4403,3.4403,3.4403,3.4403,3.4403,3.3852,3.3883,3.3913,3.3961,3.3995,3.4033,3.4056,3.4089,3.4122,3.4169,3.4202,3.4234,3.4278,3.4323,3.4359,3.4372,3.4385,3.4374,3.4392,3.4416,3.4421,3.4426,3.4421,3.4377,3.4377,3.4364,3.4364,3.4363]}]]